Location: Miss�
(46.9484°N, 0.1922°W)
Time: 22:27:11
(UTC+00:00)

FALCON 9 DEB - Pass Details

Date: 02 March 2021
Orbit: 424 x 435 km, 53.0° (Epoch: 14 April)

Event Time Altitude Azimuth Distance (km) Brightness Sun altitude
Rises 19:02:24 0° 299° (WNW) 2,405 8.2 -13.5°
Reaches altitude 10° 19:04:33 10° 304° (WNW) 1,533 6.9 -13.9°
Maximum altitude 19:07:57 55° 23° (NNE) 522 3.4 -14.4°
Enters shadow 19:09:19 31° 87° (E) 782 3.8 -14.7°
